Location: Six Mile Lake
(44.9000°N, 79.7170°W)
Time: 01:58:04
(UTC-04:00)

O/OREOS (USA 219) - Pass Details

Date: 03 July 2022
Orbit: 621 x 646 km, 72.0° (Epoch: 22 May)

Event Time Altitude Azimuth Distance (km) Brightness Sun altitude
Rises 00:40:59 0° 341° (NNW) 2,964 ? -21.5°
Reaches altitude 10° 00:43:24 10° 349° (N) 2,052 ? -21.5°
Maximum altitude 00:47:44 39° 59° (ENE) 969 ? -21.7°
Enters shadow 00:49:20 29° 103° (ESE) 1,176 ? -21.7°
